KAIT

Details ICAO KAIT
Name AITKIN MUNI STEVE KURTZ FLD
Region United States
Timezone America/Chicago (UTC-5.0)
Plans Departing 0
Arriving 0
Stats Elevation 1,205 ft / 367 m (AMSL)
Location 46.548026° -93.677605°
Runways 2
Magnetic Variation 0.347° E
Sunrise 2018-05-21 10:35:35 UTC / 2018-05-21 05:35:35 Local
Sunset 2018-05-22 01:49:54 UTC / 2018-05-21 20:49:54 Local
Advertisement - Login to hide

Runways

ID Width Length Bearing (true) Bearing (mag) Surface Threshold Offset Overrun Length
08 150 ft / 46 m 3,391 ft / 1,034 m 87.99° 87.64° Grass 0 ft / 0 m 0 ft / 0 m
16 75 ft / 23 m 4,020 ft / 1,225 m 164.49° 164.14° Asphalt 0 ft / 0 m 0 ft / 0 m
26 150 ft / 46 m 3,391 ft / 1,034 m 268.00° 267.65° Grass 0 ft / 0 m 0 ft / 0 m
34 75 ft / 23 m 4,020 ft / 1,225 m 344.49° 344.14° Asphalt 0 ft / 0 m 0 ft / 0 m

Map

Weather


0- 5 10 15 20 25 30 35+ Temperature / ° C

Clouds and Precipitation
Forecast for 2018-05-21 12:00 UTC. Updated 2 hours ago

Ground ~20,000 ft ~40,000 ft Winds

METAR

KAIT 211335Z AUTO 11003KT 10SM CLR 14/06 A3011 RMK AO2

TAF

Not found

Frequencies

Recorded 118.67 MHz AWOS 3
Approach 118.05 MHz MINNEAPOLIS APP/DEP
Unicom 123.05 MHz UNICOM/CTAF
Warning: Do not use this data for real-world aviation or navigation. No guarantee of current accuracy is given.